Location: Unspecified
(42.2730°N, 83.7130°W)
Time: 14:49:09
(UTC+00:00)

Meteor 1-25 Rocket - Pass Details

Date: 14 December 2025
Orbit: 838 x 888 km, 81.2° (Epoch: 17 January)

Event Time Altitude Azimuth Distance (km) Brightness Sun altitude
Rises 12:16:52 0° 199° (SSW) 3,454 7.5 -7.3°
Reaches altitude 10° 12:19:19 10° 203° (SSW) 2,526 6.7 -6.8°
Maximum altitude 12:25:00 60° 283° (WNW) 1,012 4.4 -5.9°
Drops below altitude 10° 12:30:46 10° 3° (N) 2,561 6.5 -4.9°
Sets 12:33:17 0° 7° (N) 3,506 7.2 -4.5°
